Погода в Дубителе

Россия / Республика Мордовия     54°09′36″N   42°34′40″E
темп.,
°C
ветер,
м/с
пор.,
м/с
влажн.,
%
обл.,
%
осадки,
мм/ч
давл.,
гПа
погр.,
м
18 мая, вт
вт1800:00+17вюв397184 0.0 1013158
03:00+15вюв310795 0.0 1013157
06:00+17вюв3126590 0.0 1012214
09:00+24юв511436 0.0 1012525
12:00+28юв611358 0.0 10121387
15:00+29вюв59403 0.0 10111414
18:00+25вюв513535 0.0 1010813
21:00+21вюв517590 0.0 1010504
19 мая, ср
ср1900:00+20вюв517561 0.0 1010420
03:00+18юв413553 0.0 1010367
06:00+17юв313654 0.0 1010373
09:00+23юв494978 0.0 1010664
12:00+26юв51045100 0.0 10101262
15:00+26вюв5115093 0.0 10091176
18:00+25юв4115683 0.0 10081029
21:00+21вюв5166496 0.0 1008580
20 мая, чт
чт2000:00+20вюв51662100 0.0 1007832
03:00+18ююв4106844 0.0 1008521
06:00+16ююв3892100 0.4 1009404
09:00+18ю4866100 0.4 1009859
12:00+19ююв585968 0.1 10101385
15:00+20ю5855100 0.1 10101691
18:00+19ю4766100 0.0 10091002
21:00+14ю2889100 0.0 1009236
21 мая, пт
пт2100:00+12ю27966 0.0 1009158
03:00+11ю389713 0.0 1009180
06:00+14ююз4884100 0.0 1010518
09:00+14юз5979100 0.1 1012668
12:00+16юз7107298 0.4 10131284
15:00+17зюз6960100 0.8 10151602
18:00+16з476951 0.0 1016873
21:00+12зюз118992 0.0 101811
22 мая, сб
сб2200:00+13вюв1182100 0.0 101813
03:00+12в2589100 0.3 1018140
06:00+13вюв41098100 2.5 1015353
09:00+13св2498100 5.2 1016210
12:00+17ссв4487100 0.1 1015368
15:00+14ссв3698100 1.0 1015179
18:00+16с359291 0.0 1015318
21:00+13ссв3798100 0.0 1017297